OpenBCM V1.07b12 (Linux)

Packet Radio Mailbox

SR8BBS

[OBCM_Lublin]

 Login: GUEST





  
I0OJJ  > KEPS     21.06.25 23:15z 343 Lines 16342 Bytes #5 (0) @ AMSAT
BID : ORB25172.1
Read: GUEST
Subj: 2Line Orbital Elements 25172.AMSAT
Path: SR8BBS<SR1BSZ<EA2RCF<I0OJJ
Sent: 250621/0025z @:I0OJJ.ITA.EU [Rome] obcm1.08-10-g596e
From: I0OJJ @ I0OJJ.ITA.EU (Gustavo)
To:   KEPS @ AMSAT
X-Info: This message was generated automatically


QST de W1STR

AMSAT Orbital Elements for Amateur Satellites in TLE Format
From Orbital Analysis Office
New England Sci-Tech STEM Education Center
Natick, MA June 21, 2025
To all radio amateurs


These element sets describe the orbits of various satellites 
in use by the amateur radio community. For details see:
www.amsat.org/keplerian-elements-formats/

A daily update of element sets is available at:
www.amsat.org/tle/daily-bulletin.txt
or without bulletin text:
www.amsat.org/tle/dailytle.txt


AO-07
1 07530U 74089B   25171.76249575 -.00000035  00000-0  69181-4 0  9992
2 07530 101.9927 176.1456 0012634 100.5682  72.2820 12.53689661315461
UO-11
1 14781U 84021B   25171.35024078  .00000989  00000-0  10975-3 0  9992
2 14781  97.7549 137.5059 0006523 308.8577  51.2058 14.89417142203241
AO-27
1 22825U 93061C   25171.40669316  .00000072  00000-0  44818-4 0  9997
2 22825  98.7360 233.0160 0009545  83.0145 277.2122 14.30802954655266
FO-29
1 24278U 96046B   25171.17674516 -.00000029  00000-0  91350-5 0  9996
2 24278  98.5749  63.6738 0349160 315.2993  42.0482 13.53249424424204
NOAA-15
1 25338U 98030A   25171.81996903  .00000187  00000-0  94421-4 0  9992
2 25338  98.5342 196.6803 0009547 332.8481  27.2200 14.26985620410002
GO-32
1 25397U 98043D   25171.36964484  .00000057  00000-0  44848-4 0  9994
2 25397  98.9706 150.7140 0001672 137.8251 222.3056 14.24317657399829
ISS
1 25544U 98067A   25171.80882408  .00010734  00000-0  19478-3 0  9991
2 25544  51.6358 289.1269 0002114 264.7605  95.3143 15.50148846515722
NO-44
1 26931U 01043C   25171.54334321  .00000087  00000-0  63575-4 0  9995
2 26931  67.0508  99.4940 0006094 276.3799  83.6609 14.31739664238678
SO-50
1 27607U 02058C   25171.41961655  .00001048  00000-0  14787-3 0  9993
2 27607  64.5511 167.0749 0057601 331.6349  28.1623 14.81650807210834
CO-55
1 27844U 03031E   25171.78158090  .00000246  00000-0  12634-3 0  9997
2 27844  98.6752 179.9103 0010248 148.6586 211.5205 14.24004527140265
CO-57
1 27848U 03031J   25170.54016859  .00000226  00000-0  11891-3 0  9992
2 27848  98.6781 178.6830 0009710 168.6411 191.4989 14.23337433139789
RS-22
1 27939U 03042A   25171.82418590  .00000762  00000-0  12863-3 0  9990
2 27939  98.3288 341.5476 0010906 340.7559 126.1604 14.72378582162487
CO-58
1 28895U 05043F   25171.33339592  .00001179  00000-0  20019-3 0  9990
2 28895  98.2511 315.8185 0013200 272.8440  87.1255 14.71046437 48528
CO-65
1 32785U 08021C   25171.84532674  .00003371  00000-0  24485-3 0  9991
2 32785  97.7857 143.0926 0010257 162.4654 197.6927 15.04529386930846
CO-66
1 32791U 08021J   25170.52014901  .00008446  00000-0  40768-3 0  9990
2 32791  97.7276 150.7836 0005557 120.6003 239.5780 15.18918880932003
RS-30
1 32953U 08025A   25171.83002493  .00000025  00000-0  11169-3 0  9990
2 32953  82.5020 220.1817 0019607  25.2584 334.9450 12.43165439774937
NOAA-19
1 33591U 09005A   25171.81365406  .00000149  00000-0  10363-3 0  9994
2 33591  98.9968 236.5811 0013158 336.2825  23.7739 14.13379474843699
SRMSAT
1 37841U 11058D   25171.14574866  .00000387  00000-0  66205-4 0  9996
2 37841  19.9720  90.6061 0011854 180.6290 318.9373 14.11439399706607
ZACUBE-1
1 39417U 13066B   25171.34989197  .00004253  00000-0  36993-3 0  9993
2 39417  97.7795 128.3052 0044435  18.3806 341.9009 14.96745920626521
Delfi-N3xt
1 39428U 13066N   25171.18279087  .00005789  00000-0  58923-3 0  9999
2 39428  97.8345  88.7150 0083675 326.7903  32.8078 14.88530491620652
GOMX-1
1 39430U 13066Q   25171.80353289  .00001460  00000-0  23244-3 0  9998
2 39430  97.6826  29.7789 0132929 155.9273 204.8224 14.67676198617055
LO-74
1 39440U 13066AA  25171.75854114  .00002015  00000-0  20735-3 0  9995
2 39440  97.8496 116.2415 0062873 141.9731 218.5950 14.89996290624309
AO-73
1 39444U 13066AE  25171.33633536  .00005211  00000-0  39008-3 0  9990
2 39444  97.7819 133.2938 0041858 353.4228   6.6441 15.02474406625208
DTUSAT-2
1 40030U 14033W   25171.36990057  .00004743  00000-0  30918-3 0  9995
2 40030  98.0551 143.7109 0010061  34.0690 326.1181 15.08391256598028
EO-80
1 40032U 14033Y   25171.38958504  .00005411  00000-0  35140-3 0  9995
2 40032  98.0437 143.3711 0007648 335.7493  24.3373 15.08478189598006
LILACSAT-2
1 40908U 15049K   25171.85765087  .00009097  00000-0  23619-3 0  9991
2 40908  97.5054 192.4767 0011004 116.5874 243.6500 15.39146849539969
IO-86
1 40931U 15052B   25151.18580175  .00001241  00000-0  78118-4 0  9996
2 40931   6.0006  24.0987 0012733 338.8432  21.1169 14.78805930523047
Horyu-4
1 41340U 16012D   25170.99694225  .00018140  00000-0  47716-3 0  9995
2 41340  30.9974  61.8610 0005796 172.8284 187.2445 15.37296064514393
Lapan A3
1 41603U 16040E   25171.81586490  .00002679  00000-0  94838-4 0  9992
2 41603  97.1366 175.9825 0009626 221.8398 138.2109 15.29928787499500
CAS-2T
1 41847U 16066G   25171.56518367  .00001508  00000-0  22152-3 0  9999
2 41847  98.4198 245.9320 0346852 145.1337 217.3117 14.43517117452605
CAS-4B
1 42759U 17034B   25171.70696046  .00057641  00000-0  56990-3 0  9991
2 42759  43.0062 255.4917 0020479   4.1892 355.9142 15.64768076444341
CAS-4A
1 42761U 17034D   25171.66693043  .00062419  00000-0  58378-3 0  9994
2 42761  43.0100 252.7611 0021602   8.5731 351.5500 15.66092535444361
TechnoSat
1 42829U 17042E   25171.43809962  .00001679  00000-0  13308-3 0  9997
2 42829  97.3869 339.6328 0014646 235.5250 124.4592 15.01757774432354
AO-91
1 43017U 17073E   25171.36578708  .00006851  00000-0  34843-3 0  9998
2 43017  97.5257  41.8656 0173788 129.4739 232.2008 15.04882128410833
S-Net D
1 43186U 18014G   25171.22077650  .00003954  00000-0  23442-3 0  9990
2 43186  97.5618  74.0189 0008975 177.8253 182.3018 15.11917435403985
S-Net B
1 43187U 18014H   25171.62341499  .00003610  00000-0  21444-3 0  9999
2 43187  97.5625  74.3899 0009844 172.4996 187.6383 15.11899417404046
S-Net A
1 43188U 18014J   25170.95639364  .00003844  00000-0  22797-3 0  9997
2 43188  97.5630  73.8809 0009653 175.2880 184.8443 15.11919870403949
S-Net C
1 43189U 18014K   25170.69926182  .00003327  00000-0  19796-3 0  9997
2 43189  97.5648  73.6424 0011342 170.1269 190.0186 15.11888945402459
Ten-Koh
1 43677U 18084G   25171.33150644  .00001730  00000-0  14201-3 0  9992
2 43677  98.0860 344.0136 0006175 215.1190 144.9626 15.00620008361856
PO-101
1 43678U 18084H   25171.80779024  .00001110  00000-0  98501-4 0  9992
2 43678  98.1030 348.3613 0007628 249.3674 110.6729 14.98372160362061
QO-100
1 43700U 18090A   25171.84489014  .00000155  00000-0  00000+0 0  9996
2 43700   0.0114  47.3913 0002207  80.8765 110.9762  1.00272312 24295
MinXSS-2
1 43758U 18099A   25170.16698535  .00013014  00000-0  50742-3 0  9992
2 43758  97.5014 236.2340 0013235 120.7066 239.5478 15.25997562358433
AO-95
1 43770U 18099N   25171.13442541  .00006597  00000-0  33288-3 0  9992
2 43770  97.4909 229.1035 0011222 167.5259 192.6255 15.17401636358152
RANGE-A
1 43773U 18099R   25171.54096061  .00003852  00000-0  24595-3 0  9994
2 43773  97.4478 219.6247 0012268 147.9135 212.2843 15.09180610357878
MOVE-II
1 43780U 18099Y   25171.80345651  .00319471  00000-0  14237-2 0  9991
2 43780  97.4633 248.3569 0005516 209.0997 150.9965 15.83443685359577
SNUSat 2
1 43782U 18099AA  25171.11041802  .00006166  00000-0  33529-3 0  9998
2 43782  97.4590 225.7454 0013609 115.7049 244.5590 15.14754618358091
SnugLite
1 43784U 18099AC  25171.09644720  .00007966  00000-0  39777-3 0  9995
2 43784  97.4404 225.3133 0005107 114.0475 246.1293 15.17741726358239
ITASat 1
1 43786U 18099AE  25171.12761048  .00004522  00000-0  25877-3 0  9995
2 43786  97.4559 225.2414 0014936 163.9310 196.2398 15.13050114358055
EAGLET 1
1 43790U 18099AJ  25171.42475870  .00003818  00000-0  24409-3 0  9995
2 43790  97.4760 225.4530 0013002 146.6984 213.5065 15.09138203357709
ESEO
1 43792U 18099AL  25171.38938314  .00001264  00000-0  98922-4 0  9994
2 43792  97.4485 218.5387 0015004 121.1946 239.0752 15.02661394357440
CSIM
1 43793U 18099AM  25171.49468030  .00073458  00000-0  43087-3 0  9995
2 43793  97.4781 250.2527 0005381 162.0843 198.0614 15.78066381359368
JO-97
1 43803U 18099AX  25171.43991122  .00009421  00000-0  42664-3 0  9993
2 43803  97.4658 230.4198 0009150 106.9696 253.2543 15.21056050358429
Suomi 100
1 43804U 18099AY  25171.40602006  .00006807  00000-0  33169-3 0  9996
2 43804  97.4722 229.6517 0014023 109.5543 250.7207 15.18577184358344
ISAT
1 43879U 18111D   25171.22003569  .00014737  00000-0  50496-3 0  9995
2 43879  97.5950  85.8501 0009747 148.5913 211.5911 15.30262360355329
UWE-4
1 43880U 18111E   25170.70390225  .00011710  00000-0  45496-3 0  9999
2 43880  97.5894  83.7300 0012273 165.5042 194.6551 15.26158231355172
Sparrow
1 43881U 18111F   25171.52004888  .00015525  00000-0  51174-3 0  9996
2 43881  97.6096  89.0767 0006629 180.6065 179.5169 15.31529412355463
Prox-1
1 44339U 19036A   25171.80961051  .00008443  00000-0  10528-2 0  9995
2 44339  23.9977 348.0199 0006763 201.1880 158.8338 14.80167152319776
SONATE
1 44400U 19038Q   25170.34456096  .00489735  11021-3  83765-3 0  9991
2 44400  97.6770 198.7918 0008774 191.2060 168.9025 16.02449050331131
Taurus 1
1 44530U 19059C   25171.78402518  .00003365  00000-0  62383-3 0  9993
2 44530  98.6077 311.7101 0008800   9.6242 350.5127 14.65962304305582
Duchifat 3
1 44854U 19089C   25171.66074243  .00035637  00000-0  67451-3 0  9990
2 44854  36.9428 284.6949 0003623  39.7581 320.3441 15.47449401304663
TO-108
1 44881U 19093C   25171.87533086  .00000649  00000-0  81027-4 0  9994
2 44881  97.7923 247.2890 0013562 188.5656 171.5330 14.85622001297751
